Weather History for McCook, NE

Change the Weather History Date:

Sunday, November 21, 2010

  Actual Average Record
Temperature  
Mean Temperature 30 °F 35 °F  
Max Temperature 32 °F 49 °F 72 °F (2006)
Min Temperature 27 °F 22 °F -3 °F (1964)
Degree Days  
Heating Degree Days 36    
Moisture  
Dew Point 29 °F    
Average Humidity 96    
Maximum Humidity 100    
Minimum Humidity 89    
Precipitation  
Precipitation 0.00 in 0.03 in 1.12 in (1973)
Month to date precipitation 0.34 0.71  
Year to date precipitation 21.64 21.65  
Sea Level Pressure  
Sea Level Pressure 29.79 in    
Wind  
Wind Speed 7 mph (East)    
Max Wind Speed 15 mph    
Max Gust Speed -    
Visibility 5 miles    
Events      
T = Trace of Precipitation, MM = Missing Value Source: NWS Daily Summary

Daily Weather History Graph

Daily Weather History Graph

Search for Another Location

Airport:

Trip Planner

Search our weather history database for the weather conditions in past years. The results will help you decide how hot, cold, wet, or windy it might be!

Date:

Astronomy

Nov. 21, 2010 Rise Set
Actual Time 7:34 AM CST 5:21 PM CST
Civil Twilight 7:05 AM CST 5:50 PM CST
Nautical Twilight 6:32 AM CST 6:24 PM CST
Astronomical Twilight 5:59 AM CST 6:56 PM CST
Moon 5:12 PM CST (11/21) 7:38 AM CST (11/21)
Length of Visible Light 10h 45m
Length of Day
9h 46m
Full, 100% of the Moon is Illuminated
Nov 21
Full
Nov 28
Last Quarter
Dec 5
New
Dec 13
First Quarter
Dec 21
Full

Hourly Weather History & Observations

Time (CST) Temp. Windchill Dew Point Humidity Pressure Visibility Wind Dir Wind Speed Gust Speed Precip Events Conditions
12:10 AM 28.4 °F 21.2 °F 28.4 °F 100% 29.79 in 7.0 mi SSE 6.9 mph - N/A   Overcast
12:43 AM 28.4 °F 20.4 °F 28.4 °F 100% 29.76 in 4.0 mi SE 8.1 mph - N/A   Overcast
12:53 AM 28.9 °F 20.4 °F 28.0 °F 96% 29.83 in 3.0 mi SE 9.2 mph - N/A   Overcast
1:00 AM 28.4 °F 20.4 °F 28.4 °F 100% 29.75 in 2.0 mi SSE 8.1 mph - N/A   Overcast
1:07 AM 28.4 °F 19.7 °F 28.4 °F 100% 29.75 in 1.8 mi SE 9.2 mph - N/A   Overcast
1:33 AM 28.4 °F 21.2 °F 28.4 °F 100% 29.74 in 0.8 mi SSE 6.9 mph - N/A   Mist
1:53 AM 30.0 °F 25.2 °F 28.9 °F 96% 29.81 in 0.8 mi SE 4.6 mph - N/A   Mist
2:53 AM 30.0 °F 25.2 °F 30.0 °F 100% 29.82 in 0.8 mi ESE 4.6 mph - N/A   Mist
3:53 AM 30.9 °F 26.2 °F 30.9 °F 100% 29.80 in 0.8 mi East 4.6 mph - N/A   Mist
4:14 AM 30.2 °F 24.3 °F 30.2 °F 100% 29.72 in 1.0 mi ESE 5.8 mph - N/A   Mist
4:53 AM 30.9 °F 26.2 °F 30.9 °F 100% 29.78 in 1.2 mi ESE 4.6 mph - N/A   Overcast
5:53 AM 30.9 °F 26.2 °F 30.9 °F 100% 29.78 in 1.0 mi SE 4.6 mph - N/A   Mist
6:05 AM 30.2 °F 26.7 °F 30.2 °F 100% 29.71 in 0.8 mi Variable 3.5 mph - N/A   Overcast
6:08 AM 30.2 °F 26.7 °F 30.2 °F 100% 29.70 in 1.0 mi Variable 3.5 mph - N/A   Overcast
6:14 AM 30.2 °F 25.4 °F 30.2 °F 100% 29.70 in 2.0 mi SSE 4.6 mph - N/A   Overcast
6:25 AM 32.0 °F 24.8 °F 32.0 °F 100% 29.70 in 4.0 mi South 8.1 mph - N/A   Overcast
6:53 AM 32.0 °F - 32.0 °F 100% 29.78 in 5.0 mi Calm Calm - N/A   Overcast
7:53 AM 32.0 °F 24.8 °F 30.9 °F 96% 29.81 in 3.0 mi NE 8.1 mph - N/A   Overcast
7:57 AM 32.0 °F 26.4 °F 30.2 °F 93% 29.74 in 2.5 mi NNE 5.8 mph - N/A   Overcast
8:26 AM 32.0 °F 25.6 °F 30.2 °F 93% 29.75 in 1.5 mi NNE 6.9 mph - N/A   Overcast
8:53 AM 32.0 °F 24.8 °F 32.0 °F 100% 29.83 in 1.0 mi NE 8.1 mph - N/A   Overcast
9:44 AM 32.0 °F 24.2 °F 30.2 °F 93% 29.78 in 2.5 mi NE 9.2 mph - N/A   Overcast
9:53 AM 32.0 °F 24.8 °F 30.9 °F 96% 29.85 in 4.0 mi NE 8.1 mph - N/A   Overcast
10:23 AM 32.0 °F 24.8 °F 30.2 °F 93% 29.79 in 9.0 mi NNE 8.1 mph - N/A   Overcast
10:53 AM 32.0 °F 23.6 °F 30.9 °F 96% 29.86 in 10.0 mi NNE 10.4 mph - N/A   Overcast
11:53 AM 32.0 °F 25.6 °F 30.0 °F 92% 29.86 in 10.0 mi ENE 6.9 mph - N/A   Overcast
12:53 PM 30.9 °F 21.7 °F 28.9 °F 92% 29.85 in 10.0 mi NE 11.5 mph - N/A   Overcast
1:53 PM 30.9 °F 21.7 °F 28.9 °F 92% 29.84 in 5.0 mi NE 11.5 mph - N/A   Overcast
2:53 PM 30.9 °F 22.2 °F 28.0 °F 89% 29.85 in 9.0 mi NE 10.4 mph - N/A   Overcast
3:53 PM 30.0 °F 21.1 °F 28.0 °F 92% 29.86 in 10.0 mi ENE 10.4 mph - N/A   Overcast
4:09 PM 30.2 °F 23.4 °F 28.4 °F 93% 29.79 in 10.0 mi ENE 6.9 mph - N/A   Overcast
4:37 PM 30.2 °F 22.6 °F 28.4 °F 93% 29.79 in 10.0 mi ENE 8.1 mph - N/A   Overcast
4:53 PM 30.0 °F 23.2 °F 28.0 °F 92% 29.86 in 10.0 mi ENE 6.9 mph - N/A   Overcast
5:53 PM 30.0 °F 25.2 °F 28.0 °F 92% 29.86 in 10.0 mi East 4.6 mph - N/A   Overcast
6:53 PM 30.9 °F 22.8 °F 28.0 °F 89% 29.85 in 10.0 mi ENE 9.2 mph - N/A   Overcast
7:53 PM 28.9 °F 18.2 °F 27.0 °F 92% 29.83 in 9.0 mi ENE 13.8 mph - N/A   Overcast
8:53 PM 28.0 °F 17.5 °F 26.1 °F 92% 29.83 in 9.0 mi ENE 12.7 mph - N/A   Overcast
9:53 PM 28.0 °F 19.3 °F 26.1 °F 92% 29.83 in 9.0 mi ENE 9.2 mph - N/A   Overcast
10:41 PM 26.6 °F 15.7 °F 26.6 °F 100% 29.75 in 5.0 mi East 12.7 mph - N/A   Overcast
10:53 PM 27.0 °F 16.7 °F 27.0 °F 100% 29.81 in 3.0 mi ENE 11.5 mph - N/A   Overcast
11:15 PM 26.6 °F 16.2 °F 26.6 °F 100% 29.74 in 2.5 mi ENE 11.5 mph - N/A   Overcast
11:53 PM 27.0 °F 15.2 °F 26.1 °F 96% 29.78 in 2.5 mi ENE 15.0 mph - N/A   Overcast